Location: Unspecified
(0.0000°N, 0.0000°E)
Time: 22:37:41
(UTC+00:00)

ISS - Pass Details

Date: 20 October 2020
Orbit: 417 x 420 km, 51.6° (Epoch: 30 October)

Event Time Altitude Azimuth Distance (km) Brightness Sun altitude
Exits shadow 03:56:34 13° 46° (NE) 1,303 -0.9 -26.6°
Drops below altitude 10° 03:57:01 10° 45° (NE) 1,482 -0.6 -26.5°
Sets 03:59:07 0° 41° (NE) 2,341 0.4 -25.9°
